Skip Page Navigation
NASA JPL Caltech
NASA Logo - Jet Propulsion Laboratory + View the NASA Portal
+ Near-Earth Object (NEO) Program
Search JPL
JPL Home Earth Solar System Stars & Galaxies Technology
JPL Solar System Dynamics
BODIES ORBITS EPHEMERIDES TOOLS PHYSICAL DATA DISCOVERY FAQ SITE MAP
JPL Small-Body Database Browser
Search: [ help ]  
70745 Aleserpieri (1999 VZ20)
Classification: Main-belt Asteroid          SPK-ID: 2070745
Ephemeris | Orbit Diagram | Orbital Elements | Physical Parameters | Discovery Circumstances ]

[ show orbit diagram ]
Orbital Elements at Epoch 2456400.5 (2013-Apr-18.0) TDB
Reference: JPL 1 (heliocentric ecliptic J2000)
 Element Value Uncertainty (1-sigma)   Units 
e .06092705840649092 8.7799e-08  
a 2.575392748515641 2.9626e-08 AU
q 2.418481644107175 2.275e-07 AU
i 10.44629895983819 8.8965e-06 deg
node 71.75123100131402 4.8525e-05 deg
peri 324.0352184882811 9.2642e-05 deg
M 104.8436679387926 8.1614e-05 deg
tp 2455960.853788473238
(2012-Feb-03.35378847)
0.0003393 JED
period 1509.606056915459
4.13
2.6048e-05
7.132e-08
d
yr
n .2384728110693853 4.1149e-09 deg/d
Q 2.732303852924107 3.1431e-08 AU
  Orbit Determination Parameters
   # obs. used (total)      580  
   data-arc span      11124 days (30.46 yr)  
   first obs. used      1982-11-07  
   last obs. used      2013-04-22  
   planetary ephem.      DE405  
   SB-pert. ephem.      SB405-CPV-2  
   condition code      0  
   fit RMS      .54581  
   data source      ORB  
   producer      Otto Matic  
   solution date      2013-Apr-29 17:19:47  

Additional Information
 Earth MOID = 1.4342 AU 
 T_jup = 3.402 
[ show covariance matrix ]

Ephemeris | Orbit Diagram | Orbital Elements | Physical Parameters | Discovery Circumstances ]

Physical Parameter Table
Parameter Symbol Value Units Sigma Reference Notes
absolute magnitude H 14.335 mag .47015 1 autocmod 2.5c

70745 Aleserpieri           Discovered 1999 Nov. 9 by V. Goretti at Pianoro.
Italian scientist Alessandro Serpieri (1823-1885) was a teacher of mathematics and physics. As an astronomer, he determined the Perseid radiant and studied the solar eclipse of 1870 Dec. 22. He also analyzed the Italian earthquakes of 1872 and 1875.
NOTE: some special characters may not display properly (any characters within {} are an attempt to place the proper accent above a character)
Reference: 20050721/MPCPages.arcLast Updated: 2005-07-21
Ephemeris | Orbit Diagram | Orbital Elements | Physical Parameters | Discovery Circumstances ]
ABOUT SSD CREDITS/AWARDS PRIVACY/COPYRIGHT GLOSSARY LINKS
FirstGov 2013-Jun-18 05:19 UT
(server date/time)  
NASA Home Page
Site Manager:   Donald K. Yeomans
Webmaster  Alan B. Chamberlin